This is the latest recevied weather packets stored in our database for station/object JM1YTT-13. If no packets are shown the sender has not sent any weather packets the latest 10 day(s).
| Time | Temp. | Humidity | Pressure | Rain* | Wind** | Luminosity | Snow |
|---|---|---|---|---|---|---|---|
| 1777801390 | 20.56° C | 75% | 1005.2 hPa | 0 mm | - | - | - |
| 1777799590 | 20.56° C | 74% | 1005.3 hPa | 0 mm | - | - | - |
| 1777797790 | 21.67° C | 70% | 1005.4 hPa | 0 mm | - | - | - |
| 1777795990 | 22.78° C | 64% | 1005.3 hPa | 0 mm | - | - | - |
| 1777794190 | 22.78° C | 63% | 1005.1 hPa | 0 mm | - | - | - |
| 1777792390 | 23.33° C | 57% | 1005.2 hPa | 0 mm | - | - | - |
| 1777790590 | 23.33° C | 56% | 1005.5 hPa | 0 mm | - | - | - |
| 1777788790 | 23.89° C | 62% | 1005.5 hPa | 0 mm | - | - | - |
| 1777786990 | 25° C | 59% | 1006 hPa | 0 mm | - | - | - |
| 1777785190 | 25° C | 58% | 1006.6 hPa | 0 mm | - | - | - |
| 1777783390 | 24.44° C | 52% | 1007.1 hPa | 0 mm | - | - | - |
| 1777781590 | 24.44° C | 57% | 1007.7 hPa | 0 mm | - | - | - |
| 1777779790 | 24.44° C | 68% | 1008.3 hPa | 0 mm | - | - | - |
| 1777777990 | 23.33° C | 69% | 1008.6 hPa | 0 mm | - | - | - |
| 1777776190 | 22.78° C | 72% | 1009.1 hPa | 0 mm | - | - | - |
| 1777774390 | 22.22° C | 74% | 1009.7 hPa | 0 mm | - | - | - |
| 1777772590 | 22.22° C | 73% | 1010 hPa | 0 mm | - | - | - |
| 1777770790 | 22.22° C | 71% | 1010.3 hPa | 0 mm | - | - | - |
| 1777768990 | 22.78° C | 71% | 1010.4 hPa | 0 mm | - | - | - |
| 1777767190 | 21.67° C | 74% | 1010.7 hPa | 0 mm | - | - | - |
| 1777765390 | 21.67° C | 77% | 1010.9 hPa | 0 mm | - | - | - |
| 1777763590 | 20° C | 81% | 1011.1 hPa | 0 mm | - | - | - |
| 1777761790 | 18.89° C | 83% | 1011.1 hPa | 0 mm | - | - | - |
| 1777759990 | 17.22° C | 87% | 1011.1 hPa | 0 mm | - | - | - |
| 1777758190 | 15.56° C | 90% | 1011 hPa | 0 mm | - | - | - |
* Rain latest hour (hover to see other rain measurements)
** Current wind speed in m/s (hover to see current wind gust speed)